www.pogodaiklimat.ru

Погода и климат >> Архив погоды >> Дания >> Роскилле


ПОГОДА в Роскилле

  • Прогноз погоды в Роскилле
  • Монитор погоды в Роскилле

АРХИВ ПОГОДЫ в Роскилле

Время (UTC), дата Ветер
(напр.,м/с)
 
Видим.   Явления Облачность Т
(С)
Тd
(С)
f
(%)
Тe
(С)
Тes
(С)
Комфортность P
(гПа)
Po
(гПа)
Тmin
(С)
Tmax
(С)
R
(мм)
R24
(мм)
S
(см)
16 9.06 З 2 н/о 8/8 1170 м
[]
+18.0 +8.9 55 +19 +20 1023.2 1018.1
17 9.06 ЮЗ 3 н/о 8/8 1260 м
[]
+16.6 +9.6 63 +17 +17 1023.1 1018.0
18 9.06 Ю 3
{13}
н/о 5/0
[]
+17.0 +8.9 59 +17 +17 1022.9 1017.8 +14.4 +19.1
19 9.06 Ю 2 н/о 6/0
[]
+14.9 +9.3 69 +15 +15 1022.9 1017.8
20 9.06 Ю 1 н/о ясно +13.1 +9.1 77 +14 +14 1023.3 1018.2
21 9.06 штиль 0 н/о ясно +11.1 +8.2 82 +11 +11 1023.1 1018.0
22 9.06 ЮВ 2 н/о 9/0
[]
+11.1 +8.4 83 +10 +10 1023.3 1018.2
23 9.06 ЮВ 2 н/о 9/0
[]
+10.9 +9.0 88 +9 +9 1022.9 1017.8
00 10.06 ЮВ 1 н/о 4/0
[]
+11.8 +9.4 85 +12 +12 1022.7 1017.6
01 10.06 ЮВ 1 н/о 9/0
[]
+10.5 +9.4 93 +10 +10 1022.4 1017.3
02 10.06 В 3 н/о 9/0
[]
+12.0 +10.1 88 +11 +11 1022.2 1017.1
03 10.06 В 3 7000 м 10/0
[]
+12.1 +10.7 91 +11 +11 1021.7 1016.6
04 10.06 В 2 н/о 10/0
[]
+13.0 +11.3 89 +12 +12 1021.4 1016.3
05 10.06 В 2 н/о 9/0 2000 м
[]
+13.7 +11.2 85 +13 +14 1020.8 1015.7
06 10.06 СВ 1 н/о 10/0 2000 м
[]
+13.7 +11.6 87 +14 +16 1020.3 1015.2 +9.1 +17.1
07 10.06 В 2 н/о 8/0
[]
+15.6 +11.2 75 +15 +20 1020.0 1014.9
08 10.06 В 3 н/о 9/0
[]
+16.6 +8.2 58 +16 +21 1019.7 1014.6
09 10.06 В 4 н/о 9/0
[]
+16.9 +7.8 55 +16 +21 1019.2 1014.1
10 10.06 В 4 н/о 10/0
[]
+17.1 +8.8 58 +17 +22 1018.7 1013.6
11 10.06 В 5 н/о 9/0
[]
+17.8 +8.7 55 +17 +23 1018.8 1013.7
12 10.06 В 4 н/о 3/0
[]
+19.1 +9.3 53 +20 +28 1018.2 1013.1
13 10.06 В 4 н/о 10/0 2000 м
[]
+17.6 +9.6 59 +17 +22 1018.3 1013.2
14 10.06 В 6 н/о 10/0 2000 м
[]
+17.0 +10.1 64 +16 +18 1018.0 1012.9
15 10.06 В 5
{10}
н/о 10/10 1500 м
[]
+17.2 +9.5 61 +17 +17 1017.4 1012.3
16 10.06 В 5 н/о 10/10 1500 м
[]
+16.6 +9.4 62 +16 +16 1017.1 1012.0
17 10.06 В 4 н/о 9/0 2000 м
[]
+16.7 +9.9 64 +16 +17 1016.5 1011.4
18 10.06 В 4
{10}
н/о 6/6 1050 м
[]
+16.2 +10.7 70 +16 +16 1016.1 1011.1 +13.7 +19.9
19 10.06 СВ 2 н/о 4/4 1080 м
[]
+15.6 +10.9 74 +16 +16 1016.3 1011.2
20 10.06 СВ 2 н/о 10/10 1140 м
[]
+15.7 +10.3 70 +16 +16 1016.3 1011.2
21 10.06 СВ 3 н/о 10/10 1230 м
[]
+15.5 +10.1 70 +15 +15 1015.5 1010.4
22 10.06 СВ 3 н/о 10/10 1300 м
[]
+15.6 +9.8 68 +15 +15 1015.1 1010.0
23 10.06 СВ 3 н/о 9/0
[]
+15.0 +9.5 70 +14 +14 1014.5 1009.4
00 11.06 СВ 4 н/о 10/0
[]
+14.9 +10.0 72 +14 +14 1014.1 1009.0
01 11.06 В 4 н/о 9/0
[]
+14.9 +10.6 75 +14 +14 1013.5 1008.5
02 11.06 СВ 2 н/о 9/0
[]
+14.7 +11.5 81 +14 +14 1012.8 1007.7
03 11.06 В 4 н/о 9/9 1500 м
[]
+15.0 +11.9 82 +14 +14 1012.2 1007.2 0.0
04 11.06 В 4 н/о 9/9 1500 м
[]
+14.9 +12.2 84 +14 +14 1012.5 1007.4
05 11.06 В 4 н/о 9/9 1080 м
[]
+15.0 +12.4 84 +14 +14 1012.4 1007.3
06 11.06 В 4
{10}
н/о 9/0
[]
+15.0 +13.3 90 +14 +15 1012.0 1006.9 +14.5 +16.3
07 11.06 СВ 4 н/о 10/0 2000 м
[]
+15.0 +14.2 95 +14 +17 1011.3 1006.2 2
08 11.06 В 4 н/о 5/5 210 м
[]
+17.2 +14.8 86 +17 +20 1011.7 1006.6 0.1
09 11.06 СВ 4 н/о 9/9 360 м
[]
+18.4 +15.3 82 +19 +20 1012.0 1006.9 2
10 11.06 В 4 н/о 9/9 450 м
[]
+20.1 +15.7 76 +23 +24 комфорт 1012.1 1007.0
11 11.06 В 6 н/о 9/9 480 м
[]
+20.7 +16.3 76 +24 +24 комфорт 1011.9 1006.8
12 11.06 В 6 н/о 1/1 480 м
[]
+21.0 +16.7 76 +25 +30 комфорт 1011.8 1006.7
13 11.06 В 7 н/о 4/0
[]
+21.6 +17.3 77 +26 +29 душно 1011.5 1006.4
14 11.06 ЮВ 7 н/о 6/6 840 м
[]
+20.6 +16.9 79 +24 +25 комфорт 1011.9 1006.8
15 11.06 ЮВ 7 н/о 9/9 570 м
[]
+18.2 +15.7 85 +18 +18 1013.0 1007.9
16 11.06 ЮВ 6 н/о 10/10 570 м
[]
+18.4 +15.9 85 +18 +18 1012.9 1007.8
17 11.06 ЮВ 4 н/о 8/8 700 м
[]
+19.0 +16.1 83 +20 +21 1013.2 1008.1
18 11.06 ЮВ 4 н/о ясно +19.2 +15.8 81 +21 +22 комфорт 1013.4 1008.3 +14.6 +22.6
19 11.06 В 2 н/о ясно +18.7 +16.0 84 +20 +20 1013.4 1008.3
20 11.06 В 3 н/о 4/4 1500 м
[]
+17.6 +15.4 87 +18 +18 1014.2 1009.1
21 11.06 ЮВ 4 н/о 10/10 400 м
[]
+16.8 +15.2 90 +16 +16 1014.7 1009.6
22 11.06 В 2 н/о 10/10 270 м
[]
+16.3 +15.0 92 +16 +16 1014.1 1009.0
23 11.06 В 4 н/о 8/8 330 м
[]
+16.4 +14.7 90 +16 +16 1013.5 1008.4
00 12.06 В 3 н/о 9/9 330 м
[]
+16.2 +14.4 89 +16 +16 1013.5 1008.3
01 12.06 С 2 н/о 10/10 330 м
[]
+16.1 +14.4 90 +16 +16 1013.9 1008.8
02 12.06 СВ 2 н/о 9/9 360 м
[]
+15.9 +14.2 90 +16 +16 1013.5 1008.4
03 12.06 ЮВ 4
{8}
6000 м 10/10 270 м
[]
+15.2 +14.6 96 +14 +14 1014.7 1009.6 3
04 12.06 С 5 5000 м 10/10 90 м
[]
+15.0 +14.6 97 +13 +13 1011.0 1005.9 5
05 12.06 В 2 н/о 8/8 120 м
[]
+15.6 +14.9 96 +15 +16 1010.3 1005.2 0.1
06 12.06 В 2
{8}
н/о 9/9 180 м
[]
+16.3 +15.3 94 +16 +17 1011.4 1006.3 +14.9 +19.2 5
07 12.06 В 6 н/о 9/9 420 м
[]
+18.2 +15.8 86 +18 +18 1011.8 1006.7
08 12.06 В 6 н/о 5/5 400 м
[]
+18.7 +15.8 83 +19 +21 1011.8 1006.7
09 12.06 В 6 н/о 3/3 420 м
[]
+19.9 +16.4 80 +22 +26 комфорт 1011.9 1006.8
10 12.06 В 6 н/о 10/10 450 м
[]
+19.6 +16.4 82 +21 +21 комфорт 1011.9 1006.9
11 12.06 ЮВ 5 н/о 10/10 330 м
[]
+18.2 +15.9 86 +18 +18 1011.8 1006.8
12 12.06 В 5 н/о 10/10 330 м
[]
+18.0 +15.6 86 +18 +18 1011.2 1006.2
13 12.06 В 5 н/о 10/10 400 м
[]
+19.5 +16.0 80 +21 +21 комфорт 1010.4 1005.4
14 12.06 В 6 н/о 9/9 450 м
[]
+20.4 +16.5 78 +23 +24 комфорт 1009.9 1004.9
15 12.06 В 6 н/о ясно +20.5 +16.5 78 +24 +27 комфорт 1009.0 1004.0
16 12.06 В 4 н/о ясно +20.3 +16.6 79 +23 +27 комфорт 1008.0 1003.0
17 12.06 ЮВ 5 н/о ясно +19.5 +16.3 82 +21 +23 комфорт 1007.8 1002.7
18 12.06 Ю 4 н/о 9/9 930 м
[]
+17.9 +15.8 88 +18 +18 1008.9 1003.9 +16.2 +21.4
19 12.06 ЮВ 4 7000 м 1/1 900 м
[]
+16.3 +15.1 93 +16 +16 1008.7 1003.7
20 12.06 Ю 5 6000 м 10/10 180 м
[]
+16.5 +15.3 93 +16 +16 1009.5 1004.5
21 12.06 ЮВ 8 4000 м 10/10 90 м
[]
+15.3 +14.9 97 +13 +13 1009.6 1004.6 1
22 12.06 ЮВ 2 4500 м 10/0 2000 м
[]
+15.0 +14.8 99 +15 +15 1008.3 1003.3 7
23 12.06 ЮЗ 5 3300 м 10/10 60 м
[]
+15.0 +14.8 99 +14 +14 1008.6 1003.6 0.3
00 13.06 ЮЗ 2
{8}
5000 м 10/10 90 м
[]
+15.3 +15.0 98 +15 +15 1009.2 1004.1 7
01 13.06 ЮЗ 3 3500 м 10/10 90 м
[]
+15.7 +15.2 97 +15 +15 1010.0 1005.0
02 13.06 ЮЗ 2 4300 м 9/9 240 м
[]
+15.9 +15.3 96 +16 +16 1010.3 1005.3
03 13.06 ЮЗ 2 4200 м ясно +14.2 +13.7 97 +14 +14 1010.7 1005.6
04 13.06 ЮЗ 2 4100 м ясно +14.3 +13.7 96 +14 +14 1011.0 1005.9
05 13.06 ЮЗ 4 5000 м 9/0
[]
+15.6 +14.3 92 +15 +16 1012.1 1007.1
06 13.06 ЮЗ 4 7000 м 8/8 300 м
[]
+16.2 +14.1 87 +16 +16 1012.4 1007.3 +13.6 +17.8
07 13.06 З 4 н/о 5/5 420 м
[]
+16.1 +13.0 82 +15 +18 1012.4 1007.3
08 13.06 З 3 н/о 6/0
[]
+17.5 +11.9 70 +17 +23 1013.0 1008.0
09 13.06 ЮЗ 3 н/о 8/0
[]
+18.4 +10.5 60 +19 +26 1013.7 1008.6
10 13.06 Ю 3 н/о 6/6 1020 м
[]
+20.0 +12.2 61 +22 +27 комфорт 1013.8 1008.7
11 13.06 ЮВ 5 н/о 8/8 1050 м
[]
+19.7 +13.6 68 +21 +23 комфорт 1014.1 1009.1
12 13.06 ЮВ 5 н/о 8/8 1300 м
[]
+19.3 +13.9 71 +21 +22 комфорт 1014.0 1009.0
13 13.06 ЮВ 6 н/о 6/6 1000 м
[]
+19.5 +13.9 70 +21 +23 комфорт 1014.0 1008.9
14 13.06 ЮВ 6 н/о 4/4 1300 м
[]
+19.8 +14.4 71 +21 +24 комфорт 1014.2 1009.2
15 13.06 ЮВ 5 н/о 4/4 1140 м
[]
+18.8 +14.2 75 +20 +22 1014.1 1009.1
16 13.06 ЮВ 5 н/о 5/5 1500 м
[]
+18.1 +13.4 74 +18 +19 1014.5 1009.4
17 13.06 ЮВ 5 н/о 9/0 2000 м
[]
+16.9 +13.0 78 +16 +17 1014.8 1009.7
18 13.06 ЮВ 5 н/о 4/0
[]
+16.4 +13.1 81 +16 +16 1014.8 1009.7 +15.5 +21.5
19 13.06 ЮВ 4 н/о 9/0
[]
+15.9 +13.0 83 +15 +15 1015.0 1009.9
20 13.06 ЮВ 3 н/о 8/8 1500 м
[]
+15.6 +11.9 79 +15 +15 1015.5 1010.5
21 13.06 ЮВ 3 н/о 5/5 1500 м
[]
+14.8 +12.2 84 +14 +14 1015.4 1010.3 0.0
22 13.06 ЮВ 5 н/о 10/10 1440 м
[]
+14.0 +12.3 89 +12 +12 1015.8 1010.7 4
23 13.06 ЮВ 5 н/о 9/0
[]
+14.6 +12.2 86 +13 +13 1016.2 1011.1
00 14.06 ЮВ 5
{13}
н/о 10/0
[]
+14.6 +12.6 88 +13 +13 1016.2 1011.1 4
01 14.06 ЮВ 8 н/о 10/0 2000 м
[]
+14.5 +12.5 88 +12 +12 1016.5 1011.4 0.9
02 14.06 ЮВ 6 н/о 6/0
[]
+14.1 +12.4 89 +12 +12 1017.0 1011.9 0.9
03 14.06 ЮВ 3
{12}
н/о ясно +13.0 +12.3 96 +11 +11 1017.3 1012.2 2
04 14.06 ЮВ 3 н/о ясно +14.0 +12.8 92 +13 +13 1017.5 1012.4
05 14.06 ЮВ 5 н/о ясно +15.2 +12.9 86 +14 +15 1017.6 1012.5
06 14.06 ЮВ 4
{12}
н/о ясно +16.3 +13.8 85 +16 +19 1018.2 1013.1 +12.7 +17.3
07 14.06 ЮВ 4 н/о ясно +18.0 +14.6 81 +18 +23 1018.4 1013.3
08 14.06 ЮВ 4 н/о ясно +18.2 +14.1 77 +18 +25 1018.9 1013.8
09 14.06 Ю 4 н/о ясно +21.2 +14.6 66 +24 +34 комфорт 1018.9 1013.8
10 14.06 ЮВ 3 н/о ясно +21.7 +15.7 69 +25 +38 комфорт 1019.0 1014.0
11 14.06 В 4 н/о ясно +21.8 +14.8 64 +25 +36 комфорт 1019.1 1014.1
12 14.06 ЮВ 4 н/о ясно +22.7 +15.3 63 +27 +38 душно 1018.9 1013.9
13 14.06 ЮВ 7 н/о ясно +19.7 +14.4 71 +21 +25 комфорт 1019.2 1014.2
14 14.06 ЮВ 7 н/о ясно +20.0 +14.4 70 +22 +25 комфорт 1018.9 1013.9
15 14.06 ЮВ 6 н/о 6/0
[]
+19.5 +15.2 76 +21 +23 комфорт 1018.5 1013.5
16 14.06 ЮВ 6 н/о 6/0
[]
+18.3 +14.5 79 +18 +20 1018.0 1013.0
17 14.06 ЮВ 4 н/о 9/0
[]
+17.7 +14.3 80 +17 +18 1019.0 1014.0
18 14.06 В 4 н/о 9/0
[]
+17.6 +12.8 73 +17 +18 1018.0 1013.0 +16.1 +24.0
19 14.06 н/о 10/0 2000 м
[]
+16.4 +13.1 81 1019.4 1014.4 0.4
20 14.06 В 4 н/о 8/0
[]
+15.9 +13.0 83 +15 +15 1018.8 1013.8
21 14.06 В 3 н/о ясно +14.5 +12.8 90 +14 +14 1018.8 1013.8 2
22 14.06 В 4 н/о 5/0
[]
+15.2 +12.0 81 +14 +14 1018.1 1013.1
23 14.06 В 4 н/о ясно +15.4 +12.2 81 +14 +14 1017.7 1012.7
00 15.06 В 5 н/о ясно +15.9 +12.6 81 +15 +15 1017.1 1012.1
01 15.06 В 5 н/о ясно +16.0 +11.7 76 +15 +15 1016.8 1011.8
02 15.06 В 4 н/о ясно +15.4 +12.1 81 +14 +14 1016.4 1011.3
03 15.06 В 5 н/о ясно +16.2 +12.8 80 +15 +15 1015.7 1010.6
04 15.06 В 5 н/о 1/0
[]
+16.7 +13.9 84 +16 +16 1015.2 1010.1
05 15.06 В 4 н/о 9/0
[]
+17.8 +14.9 83 +18 +19 1015.2 1010.1
06 15.06 ЮВ 6 н/о 9/0
[]
+18.4 +14.9 80 +18 +19 1014.6 1009.5 +14.3 +19.2
07 15.06 ЮВ 4 н/о 9/0
[]
+18.3 +14.7 80 +19 +21 1014.7 1009.6
08 15.06 ЮВ 5 н/о 9/0
[]
+18.3 +14.1 76 +18 +22 1014.8 1009.7
09 15.06 В 5 н/о 9/0
[]
+19.4 +14.4 73 +21 +24 комфорт 1014.1 1009.0
10 15.06 ЮВ 5 н/о 9/0
[]
+17.7 +11.6 67 +17 +22 1014.6 1009.5
11 15.06 ЮВ 3 н/о 10/0
[]
+15.5 +13.6 88 +15 +21 1015.5 1010.4 1
12 15.06 В 8 н/о 10/0
[]
+15.8 +12.9 83 +14 +16 1013.4 1008.3 2
13 15.06 В 8 н/о 9/9 1500 м
[]
+16.5 +12.6 78 +15 +15 1012.1 1007.0 2
14 15.06 В 8 н/о 5/0 2000 м
[]
+18.3 +12.6 69 +18 +20 1012.1 1007.1
15 15.06 В 8-14
{15}
н/о 1/1 1500 м
[]
+19.2 +12.4 65 +20 +21 1011.3 1006.3 2
16 15.06 В 9 н/о 9/9 1440 м
[]
+18.5 +11.8 65 +18 +18 1011.0 1006.0
17 15.06 В 6 н/о 9/9 1320 м
[]
+17.4 +11.3 67 +17 +17 1011.5 1006.5
18 15.06 В 5
{15}
н/о 9/9 1300 м
[]
+16.6 +12.3 76 +16 +16 1011.5 1006.4 +15.3 +19.5 0.3
19 15.06 ЮВ 3 800 м 10/10 1320 м
[]
+16.3 +12.9 80 +16 +16 1011.7 1006.6
20 15.06 ЮВ 1 н/о 10/10 1110 м
[]
+16.1 +13.4 84 +17 +17 1012.3 1007.2
21 15.06 Ю 4 н/о 10/10 1020 м
[]
+16.8 +14.2 85 +16 +16 1012.8 1007.7
22 15.06 Ю 2 н/о 10/10 540 м
[]
+16.1 +14.8 92 +16 +16 1012.9 1007.8
23 15.06 штиль 0 н/о 10/10 450 м
[]
+16.1 +14.8 92 +16 +16 1013.2 1008.2
00 16.06 СЗ 1 н/о 10/10 500 м
[]
+16.0 +14.7 92 +17 +17 1013.4 1008.3
01 16.06 штиль 0 н/о 10/10 270 м
[]
+15.8 +14.9 94 +16 +16 1013.6 1008.5
02 16.06 З 4 н/о 10/10 240 м
[]
+15.7 +14.7 94 +15 +15 1013.6 1008.5
03 16.06 З 6 н/о 10/10 180 м
[]
+14.8 +13.8 94 +13 +13 1014.1 1009.1
04 16.06 З 5 н/о 10/10 270 м
[]
+14.6 +13.3 92 +13 +13 1014.5 1009.4
05 16.06 З 5 н/о 10/10 270 м
[]
+14.4 +12.7 90 +13 +13 1015.2 1010.2
06 16.06 З 6 н/о 9/9 330 м
[]
+14.7 +12.5 87 +13 +13 1016.1 1011.0 +14.2 +16.9
07 16.06 З 5 н/о 10/10 450 м
[]
+16.2 +12.1 77 +15 +15 1016.7 1011.6
08 16.06 СЗ 7 н/о ясно +17.7 +9.7 59 +17 +19 1016.9 1011.8
09 16.06 СЗ 7 н/о ясно +18.4 +9.0 54 +18 +21 1017.4 1012.3
10 16.06 З 7 н/о 1/1 1140 м
[]
+19.6 +9.3 51 +20 +24 1018.0 1013.0
11 16.06 З 6 н/о 3/3 1170 м
[]
+19.8 +10.2 54 +21 +25 комфорт 1018.4 1013.4
12 16.06 СЗ 6 н/о 3/3 1230 м
[]
+19.6 +10.5 56 +20 +25 1018.7 1013.6
13 16.06 СЗ 6 н/о 6/6 1300 м
[]
+20.2 +10.5 54 +21 +24 комфорт 1019.2 1014.2
14 16.06 З 6 н/о 1/1 1300 м
[]
+20.8 +10.7 52 +22 +26 комфорт 1019.5 1014.4

 

Местоположение метеостанции Роскилле (Дания): широта 55.58 долгота 12.13 высота над уровнем моря 43 м.

В архиве по умолчанию представлена погода в Роскилле за последнюю неделю. Архивные данные за месяц целиком и за предыдущие месяцы, начиная с января 2011 года, Вы можете получить, выбрав интересующий диапазон дат из раскрывающегося списка и нажав кнопку "Ввод!".


*Определитесь, кто Вы:
робот инопланетянин человек

Внимание! Время в таблицах - всемирное. Для получения местного времени необходимо прибавить поправку, которая равна 1 ч.

Смотрите также архив погоды в соседних городах и на ближайших метеорологических станциях:

Погода в Кёге (Дания) (20 км)
Погода в Копенгагене Jaegers (Дания) (31 км)
Погода в Копенгагене (Дания) (33 км)
Погода в Хольбеке (Дания) (37 км)
Погода на Дрогдене (Дания) (38 км)
Погода в Сяелсмарке (Дания) (38 км)
Погода в Бранделеве (Дания) (45 км)
Погода в Фальстербу АМС (Швеция) (49 км)
Погода в Фальстербу (Швеция) (49 км)
Погода в Флаккебэрге (Дания) (55 км)

Пояснения к столбцам:

Ветер - указаны скорость ветра в м/с - средняя за 10 мин, порывы в срок и между сроками (в фигурных скобках) и направление, откуда дует ветер: С - северный, СВ - северо-восточный, В - восточный, ЮВ - юго-восточный, Ю - южный, ЮЗ - юго-западный, З - западный, СЗ - северо-западный.
Видимость - горизонтальная дальность видимости в метрах или километрах. При видимости от 1 до 10 км при отсутствии осадков обычно наблюдается дымка, при ухудшении видимости до 1 км и менее - туман. В сухую погоду видимость может ухудшаться дымом, пылью или мглою.
Явления - указаны атмосферные явления, наблюдавшиеся в срок или в последний час перед сроком; фигурными скобками обозначены явления, наблюдавшиеся между сроками (за 1-3 часа до срока); квадратными скобками обозначены град или гололедные отложения с указанием их диаметра в мм.
Облачность - указаны через наклонную черту общая и нижняя облачность в баллах и высота нижней границы облаков в метрах; квадратными скобками обозначены формы облаков: Ci - перистые, Cs - перисто-слоистые, Cc - перисто-кучевые, Ac - высококучевые, As - высокослоистые, Sc - слоисто-кучевые, Ns - слоисто-дождевые, Cu - кучевые, Cb - кучево-дождевые. Подробнее классификацию облаков см. в Атласе облаков (PDF).
T - Температура воздуха - температура, измеренная на высоте 2 м над землей.
Td - Температура точки росы - температура, при понижении до которой содержащийся в воздухе водяной пар достигнет насыщения.
f - Относительная влажность воздуха - влажноcть воздуха, измеренная на высоте 2 м над землей.
Te - Эффективная температура - температура, которую ощущает одетый по сезону человек в тени. Характеристика душности погоды. При расчете учитывается влияние влажности воздуха и скорости ветра на теплоощущения человека.
Tes - Эффективная температура на солнце - температура, которую ощущает человек, с поправкой на солнечный нагрев. Характеристика знойности погоды. Зависит от высоты солнца над горизонтом, облачности и скорости ветра. Ночью, в пасмурную погоду, а также при ветре 12 м/с и более поправка равна нулю.
P - Атмосферное давление - приведенное к уровню моря атмосферное давление.
Po - Атмосферное давление - измеренное на уровне метеостанции атмосферное давление.
Tmin - Минимальная температура - минимум температуры воздуха на высоте 2 м над землей.
Tmax - Максимальная температура - максимум температуры воздуха на высоте 2 м над землей.
R - Количество осадков - Количество выпавших осадков за период времени, мм. При наведении курсора мыши на число - период времени, за который выпало указанное количество осадков.
R24 - Количество осадков - Количество выпавших осадков за 24 часа, мм.
S - Снежный покров - Высота снежного покрова, см. При наведении курсора мыши на число - состояние снежного покрова и степень покрытия местности в баллах.